Cloud_Cover
0 0 4 4 2 5 5 92 80 66 27 5 0 0 0 4 3 0 0 0 0 0 2 0 3 10 81 84 81 100 94 55 100 100 99 95 100 94 97 100 100 100 99 95
5 4 1 5 0 3 61 100 100 52 100 0 0 0 0 0 5 0 0 0 0 0 5 4 38 5 5 5 5 65 100 100 100 100 100 100 100 77 100 100 98 90 78 97
7 5 4 5 0 6 85 25 52 72 46 5 0 0 1 2 5 4 5 5 0 0 0 2 5 5 8 64 61 98 100 100 100 100 100 99 92 86 98 99 68 80 93 66
98 72 81 5 0 0 0 8 2 51 9 0 0 2 5 5 0 5 5 5 5 5 5 5 5 6 79 76 45 100 100 100 100 100 98 100 100 100 85 79 100 100 96 84
94 100 79 100 1 0 0 0 4 17 5 5 57 8 5 5 2 0 5 5 5 13 62 95 100 100 96 98 100 100 100 100 100 86 100 93 99 87 99 99 97 48 51 61
100 84 63 100 14 0 0 3 3 5 5 15 54 66 5 5 5 5 5 5 5 5 5 5 29 81 96 100 100 100 100 100 100 100 94 98 100 100 99 64 87 75 47 5
97 10 69 100 57 0 0 0 5 29 58 82 62 49 15 5 5 5 5 5 5 5 5 6 34 100 100 95 100 100 100 89 100 100 99 100 100 83 6 43 51 40 24 29
97 10 100 47 91 4 0 0 3 5 50 97 98 90 62 19 11 6 5 5 5 5 5 13 45 64 100 100 100 90 98 100 95 98 98 45 54 47 30 6 24 63 34 6
30 17 100 100 91 5 5 1 0 0 5 99 100 100 63 21 28 60 51 38 58 89 59 34 87 68 12 39 76 100 100 90 98 55 41 74 71 40 31 73 60 5 5 5
100 63 97 96 100 7 14 6 5 0 5 99 100 100 100 100 91 80 58 91 100 63 54 70 66 54 71 100 100 100 98 34 42 85 81 70 29 18 45 38 9 22 38 67
56 99 100 100 100 23 94 38 5 5 37 100 100 100 100 100 100 98 88 97 85 75 60 63 76 98 100 100 100 97 36 60 79 72 85 34 73 82 99 100 100 100 99 83
100 100 100 100 100 100 99 47 17 5 49 100 86 84 88 100 100 100 100 100 100 100 100 100 100 100 100 100 82 32 56 57 57 64 59 81 84 100 100 100 100 100 99 18
100 100 100 100 100 100 100 100 99 22 54 48 65 62 98 99 100 100 100 100 100 100 100 100 100 100 100 64 46 68 54 30 31 61 22 86 100 99 95 97 100 100 67 82
100 100 100 100 100 78 57 100 100 95 37 5 9 47 97 100 100 100 100 100 100 100 100 100 100 100 19 51 72 35 5 20 65 92 95 99 100 100 95 57 12 11 8 72
100 100 100 100 100 61 40 100 100 98 80 26 47 83 97 100 100 100 100 100 100 100 100 100 55 11 68 57 22 49 71 100 87 94 97 100 100 92 89 100 100 100 88 19
100 100 100 100 100 89 100 100 100 98 61 96 100 100 98 100 100 100 100 100 100 100 84 67 58 64 74 74 76 98 100 82 61 94 100 100 100 82 100 97 100 100 100 100
100 100 100 100 100 88 97 100 99 100 100 100 100 100 100 100 100 100 100 100 100 100 100 100 96 88 71 89 100 100 100 79 100 100 100 100 91 100 88 99 100 100 100 100
100 100 100 100 100 100 100 100 100 100 100 100 100 100 100 100 100 100 100 100 100 100 100 100 100 100 100 100 100 100 85 100 100 95 90 100 78 97 82 73 100 100 94 100
100 100 100 100 100 100 100 100 100 100 100 100 100 100 100 100 100 100 100 100 100 100 100 100 100 100 100 100 100 100 100 100 74 37 65 81 58 56 96 56 99 91 74 100
100 100 100 100 100 100 100 100 100 100 100 100 100 100 100 100 100 100 100 100 100 100 100 100 100 100 100 100 100 100 94 62 50 28 71 70 78 80 97 37 62 95 76 96
100 100 100 100 100 100 100 100 100 100 100 100 100 100 100 100 100 100 100 100 100 100 100 100 100 100 100 100 96 79 72 58 77 100 100 100 92 74 97 35 25 82 97 82
100 100 100 100 100 100 100 100 100 100 100 100 100 100 100 100 100 100 100 100 100 100 100 100 100 100 100 97 97 79 31 8 42 100 100 96 60 100 100 66 31 73 88 57
100 100 100 100 100 100 100 100 100 100 100 100 100 100 100 100 100 100 100 100 100 100 100 100 100 100 99 100 100 100 98 70 60 100 100 100 86 81 100 61 21 50 67 64
100 100 100 100 100 100 100 100 100 100 100 100 100 100 100 100 100 100 100 100 100 100 100 100 100 100 100 100 100 100 100 100 62 100 100 80 84 72 6 13 25 5 5 34
100 100 100 100 100 100 100 100 100 100 100 100 100 100 100 100 100 100 100 100 100 100 100 100 100 100 100 100 100 100 100 100 100 98 100 100 93 86 5 5 17 52 56 24
100 100 100 100 100 100 100 100 100 100 100 100 100 100 100 100 100 100 100 100 100 100 100 100 100 100 100 100 100 100 100 100 100 100 100 100 85 7 17 5 5 44 34 43
100 100 100 100 100 100 100 100 100 100 100 100 100 100 100 100 100 100 100 100 97 100 100 100 100 100 99 96 87 98 100 100 100 100 100 100 100 51 11 18 39 14 45 55